www.pogodaiklimat.ru

Погода и климат >> Архив погоды >> Япония >> Цуруга


ПОГОДА в Цуруге

  • Прогноз погоды в Цуруге
  • Монитор погоды в Цуруге

АРХИВ ПОГОДЫ в Цуруге

Время (UTC), дата Ветер
(напр.,м/с)
 
Видим.   Явления Облачность Т
(С)
Тd
(С)
f
(%)
Тe
(С)
Тes
(С)
Комфортность P
(гПа)
Po
(гПа)
Тmin
(С)
Tmax
(С)
R
(мм)
R24
(мм)
S
(см)
22 13.06 Ю 8 20 км н/о +23.7 +15.8 61 +27 +27 жарко 1010.6 1009.2
23 13.06 ЮВ 7 20 км н/о +24.6 +15.3 56 +28 +28 душно 1010.4 1009.0
00 14.06 Ю 10 20 км н/о +24.8 +15.7 57 +28 +28 жарко 1010.0 1008.6 +22.2
01 14.06 ЮВ 8 20 км н/о +25.6 +15.9 55 +29 +29 душно 1010.1 1008.7
02 14.06 ЮВ 10 20 км н/о +26.0 +15.7 53 +29 +29 душно 1009.5 1008.1
03 14.06 Ю 8 20 км н/о +25.8 +15.8 54 +29 +29 душно 1009.4 1008.0
04 14.06 Ю 9 20 км н/о +25.7 +16.3 56 +29 +29 душно 1008.8 1007.4
05 14.06 ЮВ 11 20 км н/о +25.8 +15.2 52 +29 +29 душно 1008.2 1006.8
06 14.06 ЮВ 9 20 км н/о +26.2 +16.2 54 +30 +30 душно 1007.5 1006.1
07 14.06 Ю 10 20 км н/о +25.3 +15.3 54 +28 +28 жарко 1007.1 1005.7
08 14.06 ЮВ 7 20 км н/о +25.3 +15.3 54 +28 +28 жарко 1006.3 1004.9
09 14.06 ЮВ 12 20 км н/о +24.5 +15.2 56 +27 +27 жарко 1006.6 1005.2
10 14.06 Ю 7 20 км слаб. дождь н/о +22.4 +16.2 68 +27 +27 душно 1007.2 1005.8
11 14.06 ЮВ 6 20 км в посл. час дождь н/о +23.4 +14.4 57 +27 +27 душно 1006.4 1005.0
12 14.06 Ю 6 20 км слаб. дождь н/о +21.9 +14.6 63 +25 +25 комфорт 1006.6 1005.2 +26.9 0.0
13 14.06 ЮВ 7 20 км в посл. час дождь н/о +22.0 +14.2 61 +25 +25 комфорт 1006.2 1004.8
14 14.06 ЮВ 7 20 км н/о +21.7 +14.9 65 +25 +25 комфорт 1005.2 1003.8
15 14.06 ЮВ 6 20 км {дождь} н/о +21.5 +14.2 63 +24 +24 комфорт 1004.4 1003.0
16 14.06 ЮВ 5 20 км слаб. дождь н/о +20.5 +14.6 69 +23 +23 комфорт 1003.2 1001.8
17 14.06 ЮВ 5 20 км слаб. дождь н/о +19.5 +15.0 75 +21 +21 комфорт 1002.8 1001.4
18 14.06 ЮВ 5 12 км слаб. дождь н/о +18.7 +15.2 80 +19 +19 1001.5 1000.1 0.5
19 14.06 ЮВ 5 17 км слаб. дождь н/о +18.3 +15.2 82 +18 +18 1001.4 1000.0
20 14.06 ЮВ 4 14 км слаб. дождь н/о +18.0 +14.9 82 +18 +18 1000.8 999.4
21 14.06 ЮВ 6 20 км слаб. дождь н/о +18.5 +15.2 81 +19 +19 999.5 998.1
22 14.06 ЮВ 5 20 км слаб. дождь н/о +18.7 +15.2 80 +19 +19 999.0 997.6
23 14.06 ЮВ 5 20 км в посл. час дождь н/о +19.1 +14.8 76 +20 +20 998.1 996.7
00 15.06 С 5 20 км {дождь} н/о +19.8 +16.7 82 +22 +22 комфорт 996.6 995.2 +17.9 2
01 15.06 С 5 20 км н/о +20.8 +16.6 77 +24 +24 комфорт 995.7 994.3
02 15.06 С 4 20 км н/о +21.6 +16.8 74 +26 +26 душно 995.1 993.7
03 15.06 С 3 20 км н/о +24.1 +17.1 65 +28 +28 душно 992.8 991.4
04 15.06 СВ 3 20 км н/о +24.1 +15.9 60 +27 +27 жарко 991.7 990.3
05 15.06 С 4 20 км слаб. дождь н/о +22.1 +17.7 76 +27 +27 душно 991.1 989.7
06 15.06 С 3 20 км в посл. час дождь н/о +22.5 +17.9 75 +28 +28 душно 989.7 988.3 0.0
07 15.06 С 3 20 км слаб. дождь н/о +21.5 +18.5 83 +26 +26 душно 988.7 987.3
08 15.06 С 3 16 км слаб. дождь н/о +20.6 +18.0 85 +25 +25 комфорт 988.4 987.0
09 15.06 В 3 3100 м дождь н/о +19.8 +18.3 91 +23 +23 комфорт 987.3 985.9
10 15.06 ЮЗ 3 1200 м сильн. дождь н/о +19.0 +18.5 97 +21 +21 комфорт 987.8 986.4
11 15.06 С 2 3500 м дождь н/о +18.9 +18.6 98 +21 +21 комфорт 988.2 986.8
12 15.06 Ю 2 5000 м слаб. дождь н/о +18.9 +18.4 97 +21 +21 комфорт 989.2 987.8 +24.3 42
13 15.06 З 3 6000 м слаб. дождь н/о +18.4 +17.4 94 +19 +19 990.0 988.6
14 15.06 З 3 7000 м дождь н/о +18.5 +17.4 93 +20 +20 990.6 989.2
15 15.06 З 8 3700 м дождь н/о +17.9 +16.9 94 +17 +17 991.4 990.0
16 15.06 З 6 4300 м дождь н/о +18.0 +16.9 93 +17 +17 992.2 990.8
17 15.06 З 5 5000 м дождь н/о +18.0 +16.5 91 +18 +18 993.1 991.7
18 15.06 З 8 4600 м дождь н/о +18.0 +16.2 89 +17 +17 994.0 992.6 25
19 15.06 З 6 6000 м слаб. дождь н/о +18.4 +16.4 88 +19 +19 994.5 993.1
20 15.06 З 5 20 км слаб. дождь н/о +18.5 +16.5 88 +19 +19 995.7 994.3
21 15.06 З 8 9000 м слаб. дождь н/о +18.6 +16.2 86 +19 +19 996.8 995.4
22 15.06 З 8 4300 м дождь н/о +18.6 +16.4 87 +19 +19 997.6 996.2
23 15.06 З 6 5000 м слаб. дождь н/о +18.1 +16.3 89 +18 +18 998.6 997.2
00 16.06 З 9 14 км слаб. дождь н/о +18.5 +16.5 88 +18 +18 999.4 998.0 +17.6 42
01 16.06 З 8 3500 м дождь н/о +17.8 +16.2 90 +17 +17 1000.5 999.1
02 16.06 СЗ 9 18 км дождь н/о +18.8 +15.7 82 +19 +19 1001.2 999.8
03 16.06 З 6 12 км в посл. час дождь н/о +19.4 +17.0 86 +21 +21 комфорт 1001.6 1000.2
04 16.06 СЗ 8 2600 м сильн. дождь н/о +18.4 +16.2 87 +18 +18 1002.4 1001.0
05 16.06 СЗ 8 18 км в посл. час дождь н/о +19.6 +15.7 78 +21 +21 комфорт 1003.1 1001.7
06 16.06 СЗ 7 14 км в посл. час дождь н/о +19.4 +15.5 78 +21 +21 комфорт 1003.9 1002.5 35
07 16.06 СЗ 8 18 км слаб. дождь н/о +18.9 +15.8 82 +19 +19 1004.5 1003.1
08 16.06 СЗ 9 20 км в посл. час дождь н/о +18.9 +14.8 77 +19 +19 1005.3 1003.9
09 16.06 СЗ 7 18 км слаб. дождь н/о +18.4 +15.1 81 +18 +18 1006.3 1004.8
10 16.06 СЗ 9 10 км слаб. дождь н/о +17.9 +14.6 81 +17 +17 1007.0 1005.5
11 16.06 СЗ 8 20 км слаб. дождь н/о +18.2 +14.3 78 +18 +18 1007.6 1006.1
12 16.06 СЗ 7 20 км слаб. дождь н/о +17.9 +14.8 82 +17 +17 1008.6 1007.1 +20.6 37
13 16.06 С 7 20 км в посл. час дождь н/о +18.0 +13.9 77 +17 +17 1009.2 1007.7
14 16.06 С 7 19 км слаб. дождь н/о +17.8 +14.5 81 +17 +17 1009.5 1008.0
15 16.06 СЗ 6 14 км слаб. дождь н/о +17.4 +14.3 82 +17 +17 1010.1 1008.6
16 16.06 СЗ 6 5000 м дождь н/о +16.5 +14.7 89 +15 +15 1010.4 1008.9
17 16.06 СЗ 5 10 км слаб. дождь н/о +16.7 +14.4 86 +16 +16 1010.5 1009.0
18 16.06 СЗ 5 14 км в посл. час дождь н/о +16.8 +13.7 82 +16 +16 1010.7 1009.2 2
19 16.06 С 4 14 км н/о +16.9 +14.0 83 +17 +17 1011.4 1009.9
20 16.06 СЗ 2 14 км н/о +16.5 +14.0 85 +17 +17 1012.5 1011.0
21 16.06 С 2 14 км н/о +16.8 +13.7 82 +17 +17 1012.9 1011.4
22 16.06 СЗ 3 13 км н/о +17.7 +14.8 83 +18 +18 1013.2 1011.7
23 16.06 С 6 17 км н/о +19.3 +14.6 74 +20 +20 1013.2 1011.7
00 17.06 С 4 16 км н/о +19.7 +14.3 71 +22 +22 комфорт 1013.3 1011.8 +16.4 2
01 17.06 С 4 18 км н/о +21.1 +14.0 64 +24 +24 комфорт 1013.3 1011.9
02 17.06 СЗ 4 20 км н/о +21.3 +14.2 64 +24 +24 комфорт 1013.6 1012.2
03 17.06 СЗ 4 20 км н/о +20.6 +14.5 68 +23 +23 комфорт 1014.0 1012.6
04 17.06 СЗ 5 20 км н/о +20.7 +13.7 64 +23 +23 комфорт 1014.0 1012.6
05 17.06 С 5 18 км н/о +21.6 +15.0 66 +25 +25 комфорт 1014.0 1012.6
06 17.06 С 5 20 км н/о +20.9 +13.9 64 +24 +24 комфорт 1013.6 1012.2
07 17.06 С 6 20 км н/о +21.9 +14.6 63 +25 +25 комфорт 1013.4 1012.0
08 17.06 С 4 20 км н/о +20.8 +14.2 66 +24 +24 комфорт 1012.9 1011.5
09 17.06 С 4 20 км н/о +20.2 +13.4 65 +22 +22 комфорт 1013.1 1011.6
10 17.06 С 3 20 км н/о +19.6 +13.5 68 +22 +22 комфорт 1013.2 1011.7
11 17.06 ЮЗ 2 20 км н/о +18.2 +14.1 77 +19 +19 1013.7 1012.2
12 17.06 ЮВ 2 20 км н/о +17.3 +14.0 81 +18 +18 1013.8 1012.3 +23.1
13 17.06 ЮВ 3 20 км н/о +16.3 +14.0 86 +16 +16 1014.3 1012.8
14 17.06 Ю 2 20 км н/о +15.7 +13.9 89 +16 +16 1014.5 1013.0
15 17.06 ЮВ 2 20 км н/о +15.5 +13.5 88 +16 +16 1014.1 1012.6
16 17.06 Ю 2 20 км н/о +14.9 +13.1 89 +15 +15 1014.1 1012.6
17 17.06 Ю 2 20 км н/о +14.9 +13.3 90 +15 +15 1014.1 1012.6
18 17.06 Ю 2 20 км н/о +14.6 +12.8 89 +14 +14 1013.7 1012.2
19 17.06 Ю 2 20 км н/о +14.7 +12.6 87 +15 +15 1013.3 1011.8
20 17.06 Ю 2 20 км н/о +15.1 +12.4 84 +15 +15 1013.4 1011.9
21 17.06 Ю 3 20 км н/о +17.4 +12.5 73 +17 +17 1013.3 1011.8
22 17.06 Ю 4 20 км н/о +20.1 +12.9 63 +22 +22 комфорт 1013.3 1011.8
23 17.06 ЮВ 5 20 км н/о +22.6 +12.0 51 +25 +25 комфорт 1013.1 1011.7
00 18.06 ЮВ 4 20 км н/о +24.2 +12.8 49 +26 +26 жарко 1012.5 1011.1 +14.2
01 18.06 ЮВ 5 20 км н/о +26.3 +13.4 45 +28 +28 жарко 1012.1 1010.7
02 18.06 ЮВ 6 20 км н/о +26.9 +12.9 42 +29 +29 жарко 1011.6 1010.2
03 18.06 ЮВ 6 20 км н/о +27.5 +12.7 40 +29 +29 жарко 1011.0 1009.6
04 18.06 ЮВ 7 20 км н/о +27.3 +11.8 38 +28 +28 жарко 1010.7 1009.3
05 18.06 ЮВ 5 20 км н/о +27.2 +13.2 42 +29 +29 жарко 1010.6 1009.2
06 18.06 ЮВ 6 20 км н/о +26.7 +14.1 46 +29 +29 жарко 1010.2 1008.8
07 18.06 ЮВ 5 20 км н/о +26.1 +13.9 47 +28 +28 жарко 1009.7 1008.3
08 18.06 ЮВ 6 20 км н/о +26.4 +14.2 47 +29 +29 жарко 1009.5 1008.1
09 18.06 ЮВ 4 20 км н/о +25.9 +14.7 50 +28 +28 жарко 1009.7 1008.3
10 18.06 Ю 3 20 км н/о +24.7 +15.4 56 +28 +28 душно 1009.9 1008.5
11 18.06 Ю 4 20 км н/о +23.5 +15.0 59 +26 +26 жарко 1010.1 1008.7
12 18.06 Ю 3 20 км н/о +22.5 +14.9 62 +26 +26 жарко 1010.7 1009.3 +28.0
13 18.06 Ю 3 20 км н/о +21.1 +15.2 69 +24 +24 комфорт 1010.8 1009.4
14 18.06 ЮВ 1 20 км н/о +20.8 +15.4 71 +25 +25 комфорт 1010.6 1009.2
15 18.06 Ю 2 20 км н/о +20.4 +16.5 78 +24 +24 комфорт 1010.1 1008.7
16 18.06 Ю 4 20 км н/о +21.3 +14.2 64 +24 +24 комфорт 1009.6 1008.2
17 18.06 Ю 3 20 км н/о +21.1 +14.8 67 +24 +24 комфорт 1009.5 1008.1
18 18.06 Ю 4 20 км н/о +21.2 +14.4 65 +24 +24 комфорт 1009.0 1007.6
19 18.06 Ю 4 20 км н/о +21.5 +14.7 65 +25 +25 комфорт 1008.8 1007.4
20 18.06 ЮВ 5 20 км н/о +21.1 +15.0 68 +24 +24 комфорт 1008.9 1007.5
21 18.06 ЮВ 4 20 км н/о +21.2 +15.3 69 +24 +24 комфорт 1009.1 1007.7
22 18.06 ЮВ 5 20 км н/о +22.0 +15.6 67 +26 +26 душно 1009.0 1007.6
23 18.06 ЮВ 5 20 км н/о +22.8 +16.6 68 +27 +27 душно 1008.9 1007.5
00 19.06 ЮВ 5 20 км н/о +24.3 +16.6 62 +28 +28 душно 1008.5 1007.1 +19.9
01 19.06 ЮЗ 2 20 км н/о +25.3 +16.7 59 +29 +29 душно 1008.3 1006.9
02 19.06 С 6 20 км н/о +25.8 +16.7 57 +29 +29 душно 1008.0 1006.6
03 19.06 С 6 20 км н/о +26.2 +16.5 55 +30 +30 душно 1007.2 1005.8
04 19.06 С 3 20 км н/о +26.8 +16.7 54 +30 +30 душно 1006.4 1005.0
05 19.06 С 4 20 км н/о +25.4 +16.6 58 +29 +29 душно 1005.9 1004.5
06 19.06 С 6 20 км н/о +25.6 +17.3 60 +30 +30 душно 1005.6 1004.2
07 19.06 С 4 20 км н/о +24.9 +18.1 66 +29 +29 душно 1005.3 1003.9
08 19.06 С 3 18 км н/о +24.7 +17.7 65 +29 +29 душно 1005.0 1003.6
09 19.06 С 4 20 км н/о +23.8 +18.0 70 +28 +28 душно 1005.2 1003.8
10 19.06 С 2 17 км н/о +23.3 +17.5 70 +29 +29 душно 1005.4 1004.0
11 19.06 З 2 15 км н/о +22.0 +18.4 80 +27 +27 душно 1005.6 1004.2
12 19.06 Ю 2 14 км н/о +21.8 +17.6 77 +26 +26 душно 1006.1 1004.7 +26.9
13 19.06 ЮВ 2 13 км н/о +20.9 +17.5 81 +25 +25 комфорт 1006.3 1004.9
14 19.06 Ю 2 11 км н/о +20.1 +17.3 84 +24 +24 комфорт 1005.9 1004.5
15 19.06 Ю 2 10 км н/о +19.5 +17.1 86 +22 +22 комфорт 1006.0 1004.6
16 19.06 ЮВ 2 11 км н/о +19.6 +16.8 84 +23 +23 комфорт 1005.9 1004.5
17 19.06 Ю 2 10 км н/о +19.3 +16.9 86 +22 +22 комфорт 1005.6 1004.2
18 19.06 ЮВ 2 11 км н/о +19.1 +16.9 87 +21 +21 комфорт 1005.5 1004.1
19 19.06 ЮЗ 1 11 км н/о +18.9 +16.9 88 +21 +21 комфорт 1005.5 1004.1
20 19.06 Ю 2 9000 м дымка н/о +19.1 +17.1 88 +22 +22 комфорт 1005.9 1004.5
21 19.06 Ю 1 11 км н/о +19.4 +16.6 84 +22 +22 комфорт 1006.3 1004.9
22 19.06 Ю 1 11 км н/о +21.0 +17.2 79 +26 +26 душно 1006.7 1005.3
23 19.06 С 2 13 км н/о +22.5 +18.1 76 +28 +28 душно 1007.0 1005.6
00 20.06 С 3 13 км н/о +23.7 +18.8 74 +28 +28 душно 1007.2 1005.8 +18.7
01 20.06 СВ 4 16 км н/о +24.0 +17.5 67 +28 +28 душно 1007.1 1005.7
02 20.06 С 5 17 км н/о +25.1 +18.1 65 +29 +29 душно 1007.5 1006.1
03 20.06 С 5 15 км н/о +24.8 +18.3 67 +29 +29 душно 1007.3 1005.9
04 20.06 С 5 13 км н/о +25.4 +18.4 65 +30 +30 душно 1006.7 1005.3
05 20.06 С 4 12 км н/о +25.8 +18.7 65 +31 +31 очень
душно
1006.4 1005.0
06 20.06 С 6 11 км н/о +25.4 +19.1 68 +30 +30 душно 1006.5 1005.1
07 20.06 С 4 11 км н/о +24.6 +18.8 70 +29 +29 душно 1006.4 1005.0
08 20.06 С 4 12 км н/о +24.0 +19.1 74 +29 +29 душно 1006.6 1005.2
09 20.06 С 3 12 км н/о +23.8 +18.7 73 +28 +28 душно 1006.6 1005.2
10 20.06 С 2 11 км н/о +23.3 +19.3 78 +30 +30 очень
душно
1007.0 1005.6
11 20.06 С 2 10 км н/о +22.4 +18.8 80 +28 +28 душно 1007.8 1006.4
12 20.06 СЗ 1 10 км н/о +21.7 +18.5 82 +26 +26 душно 1008.5 1007.1 +26.5
13 20.06 Ю 2 10 км н/о +20.9 +17.3 80 +26 +26 душно 1009.0 1007.6
14 20.06 Ю 2 9000 м дымка н/о +20.2 +17.2 83 +24 +24 комфорт 1009.2 1007.8
15 20.06 Ю 2 10 км н/о +20.1 +17.1 83 +24 +24 комфорт 1008.8 1007.4
16 20.06 Ю 2 12 км н/о +19.8 +16.3 80 +23 +23 комфорт 1008.1 1006.7
17 20.06 Ю 2 13 км н/о +19.6 +16.6 83 +23 +23 комфорт 1007.6 1006.2
18 20.06 ЮЗ 1 14 км н/о +19.7 +16.2 80 +23 +23 комфорт 1007.6 1006.2
19 20.06 Ю 3 20 км н/о +20.4 +14.8 70 +23 +23 комфорт 1007.4 1006.0
20 20.06 ЮВ 4 20 км н/о +22.7 +14.0 58 +26 +26 жарко 1007.4 1006.0

 

Местоположение метеостанции Цуруга (Япония): широта 35.65 долгота 136.06 высота над уровнем моря 12 м.

В архиве по умолчанию представлена погода в Цуруге за последнюю неделю. Архивные данные за месяц целиком и за предыдущие месяцы, начиная с января 2011 года, Вы можете получить, выбрав интересующий диапазон дат из раскрывающегося списка и нажав кнопку "Ввод!".


*Определитесь, кто Вы:
робот инопланетянин человек

Внимание! Время в таблицах - всемирное. Для получения местного времени необходимо прибавить поправку, которая равна 9 ч.

Смотрите также архив погоды в соседних городах и на ближайших метеорологических станциях:

Погода в Хиконе (Япония) (45 км)
Погода в Фукуи (Япония) (47 км)
Погода в Гифу (Япония) (69 км)
Погода в Майдзуру (Япония) (71 км)
Погода в Киото (Япония) (76 км)
Погода в Йоккаити (Япония) (93 км)
Погода в Нагоя (Япония) (98 км)
Погода в Уэно (Япония) (98 км)
Погода в Наре (Япония) (108 км)
Погода в Цу (Япония) (110 км)

Пояснения к столбцам:

Ветер - указаны скорость ветра в м/с - средняя за 10 мин, порывы в срок и между сроками (в фигурных скобках) и направление, откуда дует ветер: С - северный, СВ - северо-восточный, В - восточный, ЮВ - юго-восточный, Ю - южный, ЮЗ - юго-западный, З - западный, СЗ - северо-западный.
Видимость - горизонтальная дальность видимости в метрах или километрах. При видимости от 1 до 10 км при отсутствии осадков обычно наблюдается дымка, при ухудшении видимости до 1 км и менее - туман. В сухую погоду видимость может ухудшаться дымом, пылью или мглою.
Явления - указаны атмосферные явления, наблюдавшиеся в срок или в последний час перед сроком; фигурными скобками обозначены явления, наблюдавшиеся между сроками (за 1-3 часа до срока); квадратными скобками обозначены град или гололедные отложения с указанием их диаметра в мм.
Облачность - указаны через наклонную черту общая и нижняя облачность в баллах и высота нижней границы облаков в метрах; квадратными скобками обозначены формы облаков: Ci - перистые, Cs - перисто-слоистые, Cc - перисто-кучевые, Ac - высококучевые, As - высокослоистые, Sc - слоисто-кучевые, Ns - слоисто-дождевые, Cu - кучевые, Cb - кучево-дождевые. Подробнее классификацию облаков см. в Атласе облаков (PDF).
T - Температура воздуха - температура, измеренная на высоте 2 м над землей.
Td - Температура точки росы - температура, при понижении до которой содержащийся в воздухе водяной пар достигнет насыщения.
f - Относительная влажность воздуха - влажноcть воздуха, измеренная на высоте 2 м над землей.
Te - Эффективная температура - температура, которую ощущает одетый по сезону человек в тени. Характеристика душности погоды. При расчете учитывается влияние влажности воздуха и скорости ветра на теплоощущения человека.
Tes - Эффективная температура на солнце - температура, которую ощущает человек, с поправкой на солнечный нагрев. Характеристика знойности погоды. Зависит от высоты солнца над горизонтом, облачности и скорости ветра. Ночью, в пасмурную погоду, а также при ветре 12 м/с и более поправка равна нулю.
P - Атмосферное давление - приведенное к уровню моря атмосферное давление.
Po - Атмосферное давление - измеренное на уровне метеостанции атмосферное давление.
Tmin - Минимальная температура - минимум температуры воздуха на высоте 2 м над землей.
Tmax - Максимальная температура - максимум температуры воздуха на высоте 2 м над землей.
R - Количество осадков - Количество выпавших осадков за период времени, мм. При наведении курсора мыши на число - период времени, за который выпало указанное количество осадков.
R24 - Количество осадков - Количество выпавших осадков за 24 часа, мм.
S - Снежный покров - Высота снежного покрова, см. При наведении курсора мыши на число - состояние снежного покрова и степень покрытия местности в баллах.